|
Cosmos 1842 - Orbit
|
Smyrna_Hopewell;
08:00:22
| Home | Info | Passes |
|
View from above orbital plane
|
View from above satellite
|
Ground track
|
The orbit data is extracted from the following two-line orbital elements,
1 17911U 87038A 13139.76379201 .00002535 00000-0 18196-3 0 2016
2 17911 082.4920 206.5144 0011565 278.5393 081.4522 15.03870313417299
| Epoch (UTC): | 19 May 2013 18:19:51 |
| Eccentricity: | 0.0011565 |
| inclination: | 82.4920° |
| perigee height: | 547 km |
| apogee height: | 563 km |
| right ascension of ascending node: | 206.5144° |
| argument of perigee: | 278.5393° |
| revolutions per day: | 15.03870313 |
| mean anomaly at epoch: | 81.4522° |
| orbit number at epoch: | 41729 |
The dashed part of the orbit path shows where the satellite is in the earth's shadow,
|
|